WZZ4319 LROP-LIRP

Flight info

Callsign WZZ4319
Flight time 1h 55m
Altitude 34000
Route POLUN Y88 VAL Z924 VEBAR Y88 KENEM DCT TORPO M730 ANC M986 GAVRA Y664 IBRID
Aircraft A20N/M-SDE2E3FGHIRWXY/LB1

Departure

Time 2026-04-25 13:48
Airport Bucharest Henri Coandă International Airport (LROP)

Arrival

Time 2026-04-25 15:43
Airport Pisa International Airport (LIRP)
Time Latitude Longitude Altitude Speed Heading
2026-04-25 13:33 44.57004 26.07900 320 ft 0 kts 354°
2026-04-25 13:40 44.57003 26.07900 320 ft 1 kts 354°
2026-04-25 13:40 44.56992 26.07902 320 ft 2 kts 354°
2026-04-25 13:40 44.56980 26.07903 320 ft 2 kts 354°
2026-04-25 13:41 44.56969 26.07905 320 ft 2 kts 354°
2026-04-25 13:41 44.56958 26.07906 317 ft 2 kts 354°
2026-04-25 13:41 44.56947 26.07908 317 ft 2 kts 354°
2026-04-25 13:41 44.56936 26.07910 317 ft 2 kts 354°
2026-04-25 13:42 44.56926 26.07911 318 ft 1 kts 354°
2026-04-25 13:42 44.56917 26.07912 318 ft 1 kts 354°
2026-04-25 13:42 44.56915 26.07912 318 ft 0 kts 354°
2026-04-25 13:44 44.56920 26.07919 319 ft 1 kts 53°
2026-04-25 13:44 44.56930 26.07999 320 ft 16 kts 82°
2026-04-25 13:44 44.56947 26.08210 320 ft 28 kts 83°
2026-04-25 13:44 44.56976 26.08372 320 ft 11 kts 45°
2026-04-25 13:45 44.57087 26.08375 319 ft 22 kts 351°
2026-04-25 13:45 44.57220 26.08380 320 ft 17 kts 46°
2026-04-25 13:45 44.57258 26.08501 320 ft 1 kts 15°
2026-04-25 13:45 44.57296 26.08494 320 ft 12 kts 353°
2026-04-25 13:46 44.57423 26.08475 320 ft 24 kts 354°
2026-04-25 13:46 44.57597 26.08448 320 ft 21 kts 354°
2026-04-25 13:46 44.57677 26.08532 323 ft 6 kts 99°
2026-04-25 13:46 44.57677 26.08547 323 ft 0 kts 88°
2026-04-25 13:47 44.57689 26.08851 320 ft 74 kts 85°
2026-04-25 13:47 44.57781 26.09936 322 ft 146 kts 83°
2026-04-25 13:47 44.57912 26.11576 625 ft 176 kts 85°
2026-04-25 13:48 44.58008 26.13314 1409 ft 183 kts 84°
2026-04-25 13:48 44.58164 26.15159 2143 ft 196 kts 82°
2026-04-25 13:48 44.58379 26.17149 2712 ft 221 kts 81°
2026-04-25 13:48 44.58572 26.19390 3291 ft 240 kts 84°
2026-04-25 13:49 44.58728 26.21809 3944 ft 259 kts 84°
2026-04-25 13:49 44.58890 26.24378 4589 ft 269 kts 84°
2026-04-25 13:49 44.59069 26.27005 5221 ft 272 kts 83°
2026-04-25 13:49 44.59087 26.29633 5845 ft 278 kts 101°
2026-04-25 13:50 44.58326 26.32097 6488 ft 281 kts 128°
2026-04-25 13:50 44.56835 26.33874 7099 ft 281 kts 156°
2026-04-25 13:50 44.54955 26.34587 7729 ft 282 kts 176°
2026-04-25 13:50 44.53000 26.34727 8343 ft 283 kts 181°
2026-04-25 13:51 44.51020 26.34775 8986 ft 285 kts 181°
2026-04-25 13:51 44.49022 26.34893 9649 ft 289 kts 180°
2026-04-25 13:51 44.46999 26.35096 10269 ft 296 kts 178°
2026-04-25 13:51 44.44910 26.35358 10876 ft 308 kts 177°
2026-04-25 13:52 44.42733 26.35662 11499 ft 320 kts 177°
2026-04-25 13:52 44.40478 26.35927 12121 ft 329 kts 184°
2026-04-25 13:52 44.38242 26.35269 12769 ft 331 kts 207°
2026-04-25 13:52 44.36351 26.33459 13426 ft 332 kts 229°
2026-04-25 13:53 44.35091 26.30766 14059 ft 335 kts 250°
2026-04-25 13:53 44.34420 26.27673 14650 ft 340 kts 258°
2026-04-25 13:53 44.33893 26.24368 15260 ft 347 kts 259°
2026-04-25 13:53 44.33359 26.21097 15867 ft 353 kts 258°
2026-04-25 13:54 44.32754 26.17755 16493 ft 357 kts 257°
2026-04-25 13:54 44.32098 26.14394 17131 ft 361 kts 256°
2026-04-25 13:54 44.31408 26.11002 17787 ft 365 kts 256°
2026-04-25 13:54 44.30703 26.07596 18429 ft 369 kts 256°
2026-04-25 13:55 44.29979 26.04130 19017 ft 372 kts 256°
2026-04-25 13:55 44.29252 26.00652 19614 ft 375 kts 256°
2026-04-25 13:55 44.28521 25.97157 20224 ft 377 kts 256°
2026-04-25 13:55 44.27822 25.93815 20814 ft 379 kts 256°
2026-04-25 13:56 44.27082 25.90284 21448 ft 380 kts 256°
2026-04-25 13:56 44.26337 25.86730 22099 ft 381 kts 256°
2026-04-25 13:56 44.25589 25.83172 22767 ft 382 kts 256°
2026-04-25 13:56 44.24844 25.79616 23444 ft 382 kts 258°
2026-04-25 13:57 44.24315 25.76007 24037 ft 378 kts 265°
2026-04-25 13:57 44.24156 25.73595 24425 ft 376 kts 270°
2026-04-25 13:57 44.24125 25.68738 25220 ft 373 kts 273°
2026-04-25 13:57 44.24108 25.65127 25826 ft 371 kts 273°
2026-04-25 13:58 44.24084 25.61542 26442 ft 368 kts 273°
2026-04-25 13:58 44.24057 25.57992 27077 ft 365 kts 273°
2026-04-25 13:58 44.24029 25.54521 27688 ft 362 kts 273°
2026-04-25 13:58 44.24002 25.50983 27951 ft 369 kts 273°
2026-04-25 13:59 44.23975 25.47309 27996 ft 381 kts 273°
2026-04-25 13:59 44.23947 25.43551 27997 ft 394 kts 273°
2026-04-25 13:59 44.23916 25.39725 27994 ft 406 kts 273°
2026-04-25 13:59 44.23880 25.35725 27997 ft 418 kts 272°
2026-04-25 14:00 44.23854 25.32970 27995 ft 421 kts 272°
2026-04-25 14:00 44.23796 25.27660 28071 ft 406 kts 272°
2026-04-25 14:00 44.23753 25.23716 28393 ft 407 kts 272°
2026-04-25 14:00 44.23828 25.19777 28798 ft 407 kts 277°
2026-04-25 14:01 44.23989 25.15833 29211 ft 408 kts 277°
2026-04-25 14:01 44.24149 25.11877 29633 ft 409 kts 277°
2026-04-25 14:01 44.24305 25.07920 30049 ft 410 kts 277°
2026-04-25 14:01 44.24459 25.03937 30422 ft 411 kts 277°
2026-04-25 14:02 44.24610 24.99959 30788 ft 411 kts 277°
2026-04-25 14:02 44.24760 24.95979 31158 ft 411 kts 277°
2026-04-25 14:02 44.24908 24.92001 31535 ft 411 kts 277°
2026-04-25 14:02 44.24958 24.90652 31663 ft 410 kts 277°
2026-04-25 14:03 44.25200 24.84066 32298 ft 408 kts 277°
2026-04-25 14:03 44.25343 24.80114 32689 ft 407 kts 277°
2026-04-25 14:03 44.25477 24.76377 33064 ft 406 kts 277°
2026-04-25 14:03 44.25616 24.72457 33453 ft 402 kts 277°
2026-04-25 14:04 44.25752 24.68584 33854 ft 399 kts 277°
2026-04-25 14:04 44.25889 24.64700 33987 ft 403 kts 277°
2026-04-25 14:04 44.26025 24.60783 34011 ft 404 kts 277°
2026-04-25 14:05 44.26287 24.52977 34006 ft 402 kts 277°
2026-04-25 14:05 44.26545 24.45186 34010 ft 402 kts 277°
2026-04-25 14:06 44.26798 24.37382 34013 ft 402 kts 277°
2026-04-25 14:06 44.27044 24.29590 34004 ft 402 kts 277°
2026-04-25 14:07 44.27286 24.21806 33985 ft 402 kts 277°
2026-04-25 14:07 44.27522 24.14021 33987 ft 401 kts 276°
2026-04-25 14:08 44.27753 24.06291 33980 ft 401 kts 276°
2026-04-25 14:08 44.27979 23.98508 33980 ft 401 kts 276°
2026-04-25 14:09 44.28199 23.90725 33985 ft 401 kts 276°
2026-04-25 14:09 44.28414 23.82940 33983 ft 402 kts 276°
2026-04-25 14:10 44.28625 23.75149 33986 ft 402 kts 276°
2026-04-25 14:10 44.28830 23.67348 33992 ft 402 kts 276°
2026-04-25 14:11 44.29031 23.59534 33996 ft 403 kts 276°
2026-04-25 14:11 44.29227 23.51725 33998 ft 403 kts 276°
2026-04-25 14:12 44.29417 23.43910 34001 ft 403 kts 276°
2026-04-25 14:12 44.29601 23.36108 33992 ft 401 kts 276°
2026-04-25 14:13 44.29779 23.28366 33962 ft 398 kts 276°
2026-04-25 14:13 44.29952 23.20676 33967 ft 399 kts 275°
2026-04-25 14:14 44.30120 23.12916 33972 ft 401 kts 275°
2026-04-25 14:14 44.30283 23.05130 33977 ft 402 kts 275°
2026-04-25 14:15 44.30446 22.97235 33992 ft 414 kts 275°
2026-04-25 14:15 44.30582 22.90403 33989 ft 426 kts 275°
2026-04-25 14:16 44.30742 22.82003 33989 ft 440 kts 275°
2026-04-25 14:16 44.30898 22.73354 33991 ft 449 kts 275°
2026-04-25 14:17 44.31047 22.64712 33990 ft 448 kts 274°
2026-04-25 14:17 44.31186 22.56016 33989 ft 448 kts 273°
2026-04-25 14:18 44.30963 22.47313 33996 ft 449 kts 271°
2026-04-25 14:18 44.30730 22.38574 33991 ft 449 kts 271°
2026-04-25 14:19 44.30502 22.29862 33994 ft 449 kts 271°
2026-04-25 14:19 44.30267 22.21144 33998 ft 449 kts 271°
2026-04-25 14:20 44.30025 22.12420 34000 ft 449 kts 271°
2026-04-25 14:20 44.29774 22.03713 34007 ft 449 kts 270°
2026-04-25 14:21 44.29512 21.94998 34007 ft 449 kts 270°
2026-04-25 14:21 44.29244 21.86287 34012 ft 449 kts 270°
2026-04-25 14:22 44.28968 21.77582 34018 ft 449 kts 270°
2026-04-25 14:22 44.28686 21.68876 34012 ft 449 kts 270°
2026-04-25 14:23 44.28397 21.60184 34013 ft 448 kts 270°
2026-04-25 14:23 44.28103 21.51487 34021 ft 448 kts 270°
2026-04-25 14:24 44.27803 21.42850 34015 ft 448 kts 270°
2026-04-25 14:24 44.27495 21.34158 34015 ft 449 kts 270°
2026-04-25 14:25 44.27180 21.25470 34017 ft 448 kts 270°
2026-04-25 14:25 44.26858 21.16777 34024 ft 448 kts 270°
2026-04-25 14:26 44.26531 21.08089 34024 ft 449 kts 270°
2026-04-25 14:26 44.26196 20.99395 34020 ft 449 kts 269°
2026-04-25 14:27 44.25855 20.90698 34024 ft 449 kts 269°
2026-04-25 14:27 44.25507 20.82006 34029 ft 449 kts 269°
2026-04-25 14:28 44.25152 20.73313 34025 ft 449 kts 269°
2026-04-25 14:28 44.24791 20.64632 34029 ft 449 kts 269°
2026-04-25 14:29 44.24424 20.55947 34023 ft 448 kts 269°
2026-04-25 14:29 44.24050 20.47259 34024 ft 449 kts 269°
2026-04-25 14:30 44.23669 20.38575 34028 ft 449 kts 269°
2026-04-25 14:30 44.23086 20.25557 34017 ft 449 kts 269°
2026-04-25 14:31 44.22688 20.16872 34030 ft 449 kts 269°
2026-04-25 14:31 44.22284 20.08194 34031 ft 449 kts 268°
2026-04-25 14:32 44.21876 19.99569 34027 ft 449 kts 269°
2026-04-25 14:32 44.21461 19.90835 34030 ft 449 kts 268°
2026-04-25 14:33 44.21038 19.82214 34030 ft 449 kts 268°
2026-04-25 14:33 44.20607 19.73535 34030 ft 449 kts 268°
2026-04-25 14:34 44.20169 19.64847 34026 ft 449 kts 268°
2026-04-25 14:34 44.19726 19.56164 34027 ft 449 kts 268°
2026-04-25 14:35 44.19275 19.47483 34029 ft 449 kts 268°
2026-04-25 14:35 44.18818 19.38804 34026 ft 449 kts 268°
2026-04-25 14:36 44.18355 19.30126 34026 ft 449 kts 268°
2026-04-25 14:36 44.17886 19.21442 34023 ft 449 kts 268°
2026-04-25 14:37 44.17408 19.12759 34023 ft 449 kts 267°
2026-04-25 14:37 44.16925 19.04082 34026 ft 449 kts 267°
2026-04-25 14:38 44.16435 18.95402 34023 ft 449 kts 267°
2026-04-25 14:38 44.15938 18.86721 34015 ft 450 kts 267°
2026-04-25 14:39 44.15435 18.78047 34015 ft 449 kts 267°
2026-04-25 14:39 44.14926 18.69370 34016 ft 450 kts 267°
2026-04-25 14:40 44.14413 18.60748 34016 ft 449 kts 267°
2026-04-25 14:40 44.13890 18.52081 34019 ft 449 kts 266°
2026-04-25 14:41 44.13360 18.43417 34017 ft 449 kts 266°
2026-04-25 14:41 44.12825 18.34751 34022 ft 449 kts 266°
2026-04-25 14:42 44.12375 18.27540 34022 ft 450 kts 266°
2026-04-25 14:42 44.11733 18.17405 34019 ft 450 kts 266°
2026-04-25 14:43 44.11177 18.08734 34019 ft 450 kts 266°
2026-04-25 14:43 44.10614 18.00056 34020 ft 450 kts 266°
2026-04-25 14:44 44.10044 17.91378 34017 ft 450 kts 266°
2026-04-25 14:44 44.09468 17.82707 34018 ft 451 kts 266°
2026-04-25 14:45 44.08885 17.74030 34020 ft 450 kts 265°
2026-04-25 14:45 44.08295 17.65355 34017 ft 451 kts 265°
2026-04-25 14:46 44.07699 17.56686 34019 ft 451 kts 265°
2026-04-25 14:46 44.07097 17.48020 34023 ft 450 kts 265°
2026-04-25 14:47 44.06591 17.40817 34024 ft 450 kts 265°
2026-04-25 14:47 44.05872 17.30684 34024 ft 451 kts 265°
2026-04-25 14:48 44.05250 17.22010 34017 ft 451 kts 265°
2026-04-25 14:48 44.04625 17.13401 34019 ft 451 kts 265°
2026-04-25 14:49 44.03989 17.04736 34016 ft 451 kts 265°
2026-04-25 14:49 44.03346 16.96065 34016 ft 451 kts 264°
2026-04-25 14:50 44.02696 16.87388 34013 ft 451 kts 264°
2026-04-25 14:50 44.02040 16.78714 34010 ft 451 kts 264°
2026-04-25 14:51 44.01377 16.70042 34008 ft 451 kts 264°
2026-04-25 14:51 44.00708 16.61376 34009 ft 450 kts 264°
2026-04-25 14:52 44.00033 16.52732 34015 ft 450 kts 264°
2026-04-25 14:52 43.99468 16.45549 34012 ft 450 kts 264°
2026-04-25 14:53 43.98666 16.35453 34013 ft 450 kts 264°
2026-04-25 14:53 43.97972 16.26807 34014 ft 450 kts 264°
2026-04-25 14:54 43.97275 16.18224 34015 ft 450 kts 264°
2026-04-25 14:54 43.96568 16.09583 34019 ft 451 kts 263°
2026-04-25 14:55 43.95854 16.00940 34021 ft 451 kts 263°
2026-04-25 14:55 43.95131 15.92274 34017 ft 451 kts 263°
2026-04-25 14:56 43.94403 15.83624 34020 ft 451 kts 263°
2026-04-25 14:56 43.93669 15.74987 34024 ft 451 kts 263°
2026-04-25 14:57 43.92929 15.66348 34023 ft 451 kts 263°
2026-04-25 14:57 43.92182 15.57713 34023 ft 451 kts 263°
2026-04-25 14:58 43.91428 15.49075 34025 ft 451 kts 263°
2026-04-25 14:58 43.90667 15.40429 34026 ft 452 kts 263°
2026-04-25 14:59 43.89904 15.31844 34027 ft 451 kts 263°
2026-04-25 14:59 43.89130 15.23199 34032 ft 452 kts 263°
2026-04-25 15:00 43.88347 15.14544 34030 ft 452 kts 263°
2026-04-25 15:00 43.87559 15.05895 34036 ft 452 kts 262°
2026-04-25 15:01 43.86763 14.97241 34043 ft 453 kts 262°
2026-04-25 15:01 43.85961 14.88587 34044 ft 453 kts 262°
2026-04-25 15:02 43.85289 14.81393 34041 ft 453 kts 262°
2026-04-25 15:02 43.84341 14.71325 34044 ft 453 kts 262°
2026-04-25 15:03 43.83518 14.62668 34040 ft 453 kts 262°
2026-04-25 15:03 43.82689 14.54016 34041 ft 453 kts 262°
2026-04-25 15:04 43.81992 14.46768 34045 ft 453 kts 262°
2026-04-25 15:04 43.81157 14.38123 34038 ft 453 kts 262°
2026-04-25 15:05 43.80316 14.29478 34046 ft 453 kts 262°
2026-04-25 15:06 43.79043 14.16519 34045 ft 453 kts 262°
2026-04-25 15:06 43.78891 14.07857 34042 ft 454 kts 271°
2026-04-25 15:07 43.79089 13.99061 34037 ft 454 kts 270°
2026-04-25 15:07 43.79163 13.90318 34039 ft 454 kts 269°
2026-04-25 15:08 43.79178 13.81578 34040 ft 454 kts 269°
2026-04-25 15:08 43.79180 13.72848 34036 ft 453 kts 269°
2026-04-25 15:09 43.79176 13.64173 34028 ft 454 kts 269°
2026-04-25 15:09 43.79160 13.51081 34026 ft 454 kts 269°
2026-04-25 15:10 43.79141 13.42343 34022 ft 453 kts 269°
2026-04-25 15:10 43.79115 13.33617 33843 ft 453 kts 269°
2026-04-25 15:11 43.79099 13.29257 33440 ft 453 kts 269°
2026-04-25 15:11 43.79082 13.24891 33017 ft 454 kts 269°
2026-04-25 15:11 43.79062 13.20520 32593 ft 455 kts 269°
2026-04-25 15:12 43.79018 13.11741 31771 ft 457 kts 269°
2026-04-25 15:12 43.78994 13.07343 31371 ft 458 kts 269°
2026-04-25 15:12 43.78968 13.02933 30973 ft 459 kts 269°
2026-04-25 15:12 43.78950 13.00010 30717 ft 458 kts 269°
2026-04-25 15:13 43.78911 12.94138 30199 ft 454 kts 269°
2026-04-25 15:13 43.78849 12.85465 29315 ft 447 kts 269°
2026-04-25 15:13 43.78816 12.81180 28877 ft 444 kts 269°
2026-04-25 15:14 43.78781 12.76918 28439 ft 441 kts 269°
2026-04-25 15:14 43.78746 12.72693 28010 ft 438 kts 269°
2026-04-25 15:14 43.78709 12.68495 27589 ft 435 kts 269°
2026-04-25 15:14 43.78670 12.64327 27173 ft 432 kts 269°
2026-04-25 15:15 43.78630 12.60190 26768 ft 429 kts 269°
2026-04-25 15:15 43.78589 12.56075 26365 ft 426 kts 269°
2026-04-25 15:15 43.78548 12.52043 25975 ft 423 kts 269°
2026-04-25 15:15 43.78504 12.47927 25576 ft 421 kts 269°
2026-04-25 15:16 43.78460 12.43953 25192 ft 418 kts 269°
2026-04-25 15:16 43.78415 12.39949 24819 ft 415 kts 269°
2026-04-25 15:16 43.78322 12.32009 24073 ft 410 kts 269°
2026-04-25 15:17 43.78223 12.24165 23297 ft 405 kts 269°
2026-04-25 15:17 43.78173 12.20279 22869 ft 403 kts 269°
2026-04-25 15:17 43.78121 12.16416 22441 ft 400 kts 269°
2026-04-25 15:18 43.78068 12.12585 22023 ft 397 kts 269°
2026-04-25 15:18 43.77960 12.04989 21211 ft 393 kts 269°
2026-04-25 15:18 43.77905 12.01219 20793 ft 391 kts 269°
2026-04-25 15:19 43.77849 11.97473 20346 ft 387 kts 269°
2026-04-25 15:19 43.77811 11.95017 20053 ft 385 kts 268°
2026-04-25 15:19 43.77734 11.90089 19472 ft 381 kts 268°
2026-04-25 15:19 43.77641 11.86435 19048 ft 379 kts 264°
2026-04-25 15:20 43.77137 11.82874 18634 ft 377 kts 253°
2026-04-25 15:20 43.76143 11.79540 18201 ft 375 kts 243°
2026-04-25 15:20 43.74744 11.76501 17734 ft 374 kts 237°
2026-04-25 15:20 43.73297 11.73523 17257 ft 372 kts 237°
2026-04-25 15:21 43.71866 11.70560 16798 ft 369 kts 238°
2026-04-25 15:21 43.70449 11.67621 16336 ft 366 kts 237°
2026-04-25 15:21 43.69035 11.64691 15890 ft 366 kts 238°
2026-04-25 15:21 43.67624 11.61767 15438 ft 365 kts 238°
2026-04-25 15:22 43.66211 11.58847 15009 ft 365 kts 237°
2026-04-25 15:22 43.64805 11.55943 14587 ft 363 kts 237°
2026-04-25 15:22 43.63406 11.53060 14233 ft 359 kts 237°
2026-04-25 15:22 43.62024 11.50211 14087 ft 355 kts 237°
2026-04-25 15:23 43.60645 11.47368 14065 ft 360 kts 237°
2026-04-25 15:23 43.59239 11.44471 14053 ft 365 kts 237°
2026-04-25 15:23 43.57846 11.41610 13878 ft 365 kts 237°
2026-04-25 15:23 43.56480 11.38660 13488 ft 363 kts 244°
2026-04-25 15:24 43.55555 11.35469 13105 ft 356 kts 256°
2026-04-25 15:24 43.55151 11.32128 12711 ft 352 kts 267°
2026-04-25 15:24 43.55106 11.28757 12337 ft 352 kts 269°
2026-04-25 15:24 43.55079 11.26480 12083 ft 351 kts 269°
2026-04-25 15:25 43.55017 11.22033 11587 ft 349 kts 269°
2026-04-25 15:25 43.54966 11.18697 11223 ft 347 kts 269°
2026-04-25 15:25 43.54912 11.15389 10855 ft 343 kts 269°
2026-04-25 15:25 43.54859 11.12110 10499 ft 341 kts 269°
2026-04-25 15:26 43.54804 11.08842 10143 ft 341 kts 269°
2026-04-25 15:26 43.54651 11.05593 9773 ft 339 kts 262°
2026-04-25 15:26 43.54176 11.02413 9384 ft 337 kts 255°
2026-04-25 15:26 43.53409 10.99373 9007 ft 335 kts 250°
2026-04-25 15:27 43.52587 10.96383 8570 ft 331 kts 250°
2026-04-25 15:27 43.51784 10.93427 8142 ft 327 kts 250°
2026-04-25 15:27 43.50212 10.87625 7320 ft 324 kts 250°
2026-04-25 15:28 43.49423 10.84717 6925 ft 323 kts 250°
2026-04-25 15:28 43.48638 10.81837 6513 ft 319 kts 250°
2026-04-25 15:28 43.47864 10.78992 6075 ft 314 kts 250°
2026-04-25 15:28 43.47064 10.76217 5643 ft 311 kts 244°
2026-04-25 15:29 43.45734 10.73868 5260 ft 316 kts 222°
2026-04-25 15:29 43.43810 10.72378 5124 ft 321 kts 202°
2026-04-25 15:29 43.41702 10.71390 5090 ft 319 kts 201°
2026-04-25 15:29 43.39571 10.70409 5111 ft 326 kts 201°
2026-04-25 15:30 43.37437 10.69420 5073 ft 320 kts 201°
2026-04-25 15:30 43.35333 10.68451 5094 ft 319 kts 201°
2026-04-25 15:30 43.33234 10.67479 5096 ft 320 kts 202°
2026-04-25 15:30 43.31333 10.66002 5015 ft 310 kts 223°
2026-04-25 15:31 43.30088 10.63721 4917 ft 285 kts 248°
2026-04-25 15:31 43.29749 10.61271 4855 ft 246 kts 272°
2026-04-25 15:31 43.30220 10.59145 4628 ft 225 kts 296°
2026-04-25 15:31 43.31051 10.57439 4491 ft 205 kts 306°
2026-04-25 15:32 43.31932 10.55960 4249 ft 199 kts 304°
2026-04-25 15:32 43.32711 10.54390 4132 ft 199 kts 300°
2026-04-25 15:32 43.33425 10.52775 4039 ft 197 kts 298°
2026-04-25 15:33 43.34775 10.49526 3832 ft 197 kts 297°
2026-04-25 15:33 43.35464 10.47867 3693 ft 199 kts 297°
2026-04-25 15:33 43.36147 10.46221 3606 ft 198 kts 297°
2026-04-25 15:33 43.36821 10.44607 3575 ft 197 kts 297°
2026-04-25 15:34 43.37502 10.42978 3487 ft 196 kts 297°
2026-04-25 15:34 43.38180 10.41356 3388 ft 194 kts 297°
2026-04-25 15:34 43.38853 10.39746 3276 ft 195 kts 297°
2026-04-25 15:34 43.39080 10.39203 3236 ft 194 kts 297°
2026-04-25 15:35 43.40804 10.35077 3006 ft 179 kts 297°
2026-04-25 15:35 43.41429 10.33576 3005 ft 181 kts 297°
2026-04-25 15:35 43.42053 10.32074 3004 ft 181 kts 297°
2026-04-25 15:36 43.43300 10.29083 3005 ft 179 kts 296°
2026-04-25 15:36 43.43919 10.27596 3004 ft 179 kts 296°
2026-04-25 15:36 43.44540 10.26099 3003 ft 181 kts 297°
2026-04-25 15:37 43.45162 10.24601 3001 ft 178 kts 297°
2026-04-25 15:37 43.45741 10.23219 3004 ft 155 kts 296°
2026-04-25 15:37 43.46257 10.21986 3017 ft 149 kts 296°
2026-04-25 15:37 43.46771 10.20741 3005 ft 149 kts 295°
2026-04-25 15:38 43.47362 10.19560 2992 ft 154 kts 315°
2026-04-25 15:38 43.48404 10.19129 3008 ft 167 kts
2026-04-25 15:38 43.49483 10.19799 3013 ft 175 kts 30°
2026-04-25 15:38 43.50450 10.20807 3005 ft 175 kts 35°
2026-04-25 15:39 43.51390 10.21874 3004 ft 174 kts 35°
2026-04-25 15:39 43.52347 10.22911 3003 ft 175 kts 33°
2026-04-25 15:39 43.53321 10.23919 3004 ft 174 kts 32°
2026-04-25 15:39 43.54289 10.24914 3004 ft 173 kts 33°
2026-04-25 15:40 43.55263 10.25915 2963 ft 176 kts 32°
2026-04-25 15:40 43.55595 10.26256 2903 ft 175 kts 32°
2026-04-25 15:40 43.57198 10.27904 2527 ft 171 kts 33°
2026-04-25 15:40 43.58147 10.28881 2302 ft 168 kts 33°
2026-04-25 15:41 43.59086 10.29846 2092 ft 170 kts 33°
2026-04-25 15:41 43.60018 10.30809 1849 ft 167 kts 33°
2026-04-25 15:41 43.60957 10.31785 1676 ft 167 kts 36°
2026-04-25 15:41 43.61827 10.32822 1560 ft 168 kts 38°
2026-04-25 15:42 43.62732 10.33835 1466 ft 165 kts 31°
2026-04-25 15:42 43.63694 10.34696 1219 ft 166 kts 30°
2026-04-25 15:42 43.64623 10.35649 833 ft 165 kts 36°
2026-04-25 15:42 43.65514 10.36574 509 ft 153 kts 31°
2026-04-25 15:43 43.66410 10.37428 329 ft 167 kts 32°
2026-04-25 15:43 43.67356 10.38379 73 ft 165 kts 33°
2026-04-25 15:43 43.68255 10.39287 13 ft 143 kts 36°
2026-04-25 15:43 43.68657 10.39705 14 ft 25 kts 36°
2026-04-25 15:44 43.68801 10.39726 11 ft 19 kts 300°
2026-04-25 15:44 43.68872 10.39574 11 ft 19 kts 306°
2026-04-25 15:44 43.68916 10.39427 13 ft 14 kts 300°
2026-04-25 15:44 43.68961 10.39297 13 ft 15 kts 295°
2026-04-25 15:45 43.68996 10.39154 13 ft 16 kts 292°
2026-04-25 15:45 43.69039 10.39006 14 ft 17 kts 291°
2026-04-25 15:45 43.69062 10.38897 13 ft 4 kts 249°
2026-04-25 15:45 43.69056 10.38890 13 ft 4 kts 221°
2026-04-25 15:46 43.69034 10.38904 13 ft 4 kts 115°
2026-04-25 15:46 43.69030 10.38921 13 ft 0 kts 109°